Tracking 18785 objects as of 26-July-2017
HD Live streaming from Space Station
objects crossing your sky now
MAYAK may become the brightest orbital object in the night sky!
Where is MAYAK now?
How to spot MAYAK

THORAD AGENA D DEB

Track THORAD AGENA D DEB now!
10-day predictions


NORAD ID: 4935
Int'l Code: 1970-025GB
Perigee: 913.3 km
Apogee: 1,007.3 km
Inclination: 99.8 °
Period: 104.1 minutes
Semi major axis: 7331 km
RCS: 0.0346 m2 (small)
Launch date: April 8, 1970
Source: United States (US)
Launch site: AIR FORCE WESTERN TEST RANGE (AFWTR)

Note: This is SATELLITE DEBRIS
Your satellite tracking list
Your tracking list is empty





NASA's NSSDC Master Catalog

Two Line Element Set (TLE):
1  4935U 70025GB  17207.25090190 +.00000178 +00000-0 +20389-3 0  9999
2  4935 099.8283 123.5937 0064113 227.5884 264.5079 13.83042520367628
Source of the keplerian elements: AFSPC